Volver al catálogo

STARLINK-30112

ActivoComunicacionesVLEO
NORAD 56306·PAYLOAD·🇺🇸 United States

Lanzado Apr 19, 2023 desde Cape Canaveral Space Force Station

Loading…

Próximos Pases (próximas 24 horas)

TLE

ActualizadoSource: CelesTrak SupGP

Época: Sep 14, 2026, 21:49 UTC

1 56306C 23056W   26257.90951389  .00026778  00000+0  96983-3 0  2576
2 56306  42.9996 219.9195 0001357 260.8282  51.0639 15.27568104    15

Sigue STARLINK-30112 en tiempo real con AllMySat

Download on the App Store